COSMOS 1867 COOLANT

Satellite information

Favourite Embed

Satellite Type and Status

DEBRISIN ORBIT

Key statistics

Satellite COSMOS 1867 COOLANT at a glance.

Uptime

13984

Days in orbit

Revolutions

≈ 14.3

Per day

Orbit

LEO

Low Earth Orbit

Inclination

65.0

Latest

Satellite identification and parameters

Extended collection of information and parameters for COSMOS 1867 COOLANT.

Object identification

Identified? True

Debris? False

Object name: COSMOS 1867 COOLANT

International designator: 1987-060AT

Object number (NORAD): 43326

Object ID (CCSDS): 43326

Country: COMMONWEALTH OF INDEPENDENT STATES (CIS)

Current information (Y/N): Y

RCS size: SMALL

Orbital parameters

Period: 100.412 minutes

Inclination: 65.0103 deg

SMA: 7156.237 km

Apoapsis: 787.889 km

Periapsis: 768.315 km

RAAN: 324.5496 deg

Eccentricy: 0.00136766

Argument of periapsis: 268.5111 deg

Mean anomaly: 91.4408 deg

Mean motion: 14.34087573 rev/day

Mean motion (dot): 0.00000728 rev/day2

B* drag term: 0.00029530426 1/REarth

Two-line elements (TLE)

Creation date: Oct. 21, 2025, 3:26 a.m.

Reference frame: TEME

Reference center: EARTH

Epoch: Oct. 20, 2025, 4:49 p.m. UTC

TLE line 0: 0 COSMOS 1867 COOLANT

TLE line 1: 1 43326U 87060AT 25293.70101437 .00000728 00000-0 29530-3 0 9992

TLE line 2: 2 43326 65.0103 324.5496 0013677 268.5111 91.4408 14.34087573422901

Live tracking on map

Real-time ground track for satellite COSMOS 1867 COOLANT.

In-orbit conjunctions

A list of the most updated potential collisions computed for object COSMOS 1867 COOLANT.

Target Orbit TCA Probability of collision Miss distance Type
FENGYUN 1C DEB SSO 2025-05-31 18:59:36 0.0001684454 65.0 (m) DEBRIS
COSMOS 1867 COOLANT LEO 2025-05-23 20:18:44 0.0001887016 483.0 (m) DEBRIS
NOAA 7 DEB SSO 2025-03-05 23:52:46 0.0001236514 344.0 (m) DEBRIS
COSMOS 2251 DEB LEO 2025-03-05 01:47:22 0.0001106925 349.0 (m) DEBRIS
DMSP 5D-2 F10 (USA 68) SSO 2025-03-04 05:10:38 0.01354115 24.0 (m) PAYLOAD

Associated space launch

Nuclear-powered magnetospheric research satellite

COSMOS 1867 COOLANT was lifted into orbit during the mission ‘Tsiklon-2 | Plasma-A 2’, on board a Tsiklon-2 space rocket.

The launch took place on July 10, 1987, 3:35 p.m. from 90.

For more information about the launch, click the button.

Launch to space Tsiklon-2 | Plasma-A 2
Tsiklon-2 | Plasma-A 2

Agency: N/A

Status: Launch Successful

Launch date: July 10, 1987, 3:35 p.m. UTC

Rocket: Tsiklon-2

Launch pad: 90

Location: Baikonur Cosmodrome, Republic of Kazakhstan

...

Latest news about this satellite

There are no fresh news available about this satellite. Check back as we update our databases every day.


Newsletter sign-up

Weekly statistics, charts and insights to help you stay on top of the space industry.